Location: Dalton
(34.7700°N, 84.9700°W)
Time: 10:47:22
(UTC-04:00)

Tiangong 1 - Pass Details

Date: 08 October 2017
Orbit: 293 x 320 km, 42.8° (Epoch: 19 October)

Event Time Altitude Azimuth Distance (km) Brightness Sun altitude
Rises 20:31:54 0° 289° (WNW) 2,032 6.2 -16.8°
Reaches altitude 10° 20:34:24 10° 315° (NW) 1,197 4.3 -17.3°
Maximum altitude 20:36:06 15° 354° (N) 946 3.1 -17.7°
Enters shadow 20:36:25 15° 2° (N) 954 3.1 -17.8°
